Newport Airport, OR

8:58 AM PDT on August 19, 2017 (GMT -0700)
Newport Municipal

Weather History for KONP - July, 2013

Change the Weather History Date:

Thursday, July 11, 2013

  Actual Average Record
Temperature  
Mean Temperature 56 °F -  
Max Temperature 62 °F 61 °F 69 °F (2004)
Min Temperature 51 °F 51 °F 42 °F (2008)
Degree Days  
Heating Degree Days 8    
Growing Degree Days 6 (Base 50)    
Moisture  
Dew Point 49 °F    
Average Humidity 75    
Maximum Humidity 88    
Minimum Humidity 59    
Precipitation  
Precipitation 0.00 in - - ()
Sea Level Pressure  
Sea Level Pressure 30.09 in    
Wind  
Wind Speed 9 mph (North)    
Max Wind Speed 21 mph    
Max Gust Speed 30 mph    
Visibility 10 miles    
Events      
Averages and records for this station are not official NWS values.
T = Trace of Precipitation, MM = Missing Value Source: NWS Daily Summary

Daily Weather History Graph

Daily Weather History Graph

Search for Another Location

Airport or City:

Trip Planner

Search our weather history database for the weather conditions in past years. The results will help you decide how hot, cold, wet, or windy it might be!

Date:

Astronomy

Jul. 11, 2013 Rise Set
Actual Time 5:42 AM PDT 9:00 PM PDT
Civil Twilight 5:06 AM PDT 9:36 PM PDT
Nautical Twilight 4:19 AM PDT 10:23 PM PDT
Astronomical Twilight 3:21 AM PDT 11:21 PM PDT
Moon 9:16 AM PDT (7/11) 10:32 PM PDT (7/11)
Length of Visible Light 16h 30m
Length of Day
15h 18m
Waxing Crescent, 11% of the Moon is Illuminated
Jul 11
Waxing Crescent
Jul 15
First Quarter
Jul 22
Full
Jul 29
Last Quarter
Aug 6
New

Hourly Weather History & Observations

Time (PDT) Temp. Dew Point Humidity Pressure Visibility Wind Dir Wind Speed Gust Speed Precip Events Conditions
12:15 AM 53.6 °F 46.4 °F 77% 30.09 in 10.0 mi North 9.2 mph 16.1 mph N/A   Clear
12:35 AM 53.6 °F 46.4 °F 77% 30.09 in 10.0 mi North 6.9 mph - N/A   Clear
12:55 AM 53.6 °F 46.4 °F 77% 30.08 in 10.0 mi North 8.1 mph - N/A   Clear
1:15 AM 53.6 °F 46.4 °F 77% 30.09 in 10.0 mi North 9.2 mph - N/A   Clear
1:35 AM 53.6 °F 46.4 °F 77% 30.09 in 10.0 mi North 6.9 mph 17.3 mph N/A   Clear
1:55 AM 53.6 °F 46.4 °F 77% 30.09 in 10.0 mi North 5.8 mph - N/A   Clear
2:15 AM 53.6 °F 46.4 °F 77% 30.09 in 10.0 mi North 6.9 mph - N/A   Clear
2:35 AM 53.6 °F 46.4 °F 77% 30.09 in 10.0 mi North 4.6 mph - N/A   Clear
2:55 AM 53.6 °F 46.4 °F 77% 30.09 in 10.0 mi North 8.1 mph - N/A   Clear
3:15 AM 53.6 °F 46.4 °F 77% 30.09 in 10.0 mi North 8.1 mph - N/A   Clear
3:35 AM 51.8 °F 46.4 °F 82% 30.09 in 10.0 mi North 4.6 mph - N/A   Clear
3:55 AM 51.8 °F 46.4 °F 82% 30.08 in 10.0 mi Calm Calm - N/A   Clear
4:15 AM 51.8 °F 46.4 °F 82% 30.09 in 10.0 mi NNE 4.6 mph - N/A   Clear
4:35 AM 51.8 °F 46.4 °F 82% 30.09 in 10.0 mi Calm Calm - N/A   Clear
4:55 AM 51.8 °F 46.4 °F 82% 30.09 in 10.0 mi Calm Calm - N/A   Clear
5:15 AM 51.8 °F 46.4 °F 82% 30.10 in 10.0 mi NNE 3.5 mph - N/A   Clear
5:35 AM 53.6 °F 46.4 °F 77% 30.10 in 10.0 mi North 5.8 mph - N/A   Clear
5:55 AM 53.6 °F 46.4 °F 77% 30.10 in 10.0 mi NNE 4.6 mph - N/A   Clear
6:15 AM 51.8 °F 46.4 °F 82% 30.11 in 10.0 mi NNE 4.6 mph - N/A   Clear
6:35 AM 53.6 °F 46.4 °F 77% 30.11 in 10.0 mi Calm Calm - N/A   Clear
6:55 AM 55.4 °F 46.4 °F 72% 30.11 in 10.0 mi NNE 3.5 mph - N/A   Clear
7:15 AM 55.4 °F 46.4 °F 72% 30.11 in 10.0 mi NNE 4.6 mph - N/A   Clear
7:35 AM 57.2 °F 48.2 °F 72% 30.11 in 10.0 mi NNE 8.1 mph - N/A   Clear
7:55 AM 59.0 °F 48.2 °F 67% 30.11 in 10.0 mi NNE 6.9 mph - N/A   Clear
8:15 AM 59.0 °F 48.2 °F 67% 30.11 in 10.0 mi North 8.1 mph - N/A   Clear
8:35 AM 60.8 °F 46.4 °F 59% 30.11 in 10.0 mi NNE 10.4 mph 17.3 mph N/A   Clear
8:55 AM 60.8 °F 46.4 °F 59% 30.11 in 10.0 mi North 9.2 mph 18.4 mph N/A   Clear
9:15 AM 60.8 °F 46.4 °F 59% 30.11 in 10.0 mi North 11.5 mph 17.3 mph N/A   Clear
9:35 AM 60.8 °F 50.0 °F 68% 30.11 in 10.0 mi ENE 10.4 mph - N/A   Clear
9:55 AM 62.6 °F 50.0 °F 63% 30.11 in 10.0 mi East 5.8 mph - N/A   Clear
10:15 AM 62.6 °F 50.0 °F 63% 30.11 in 10.0 mi NW 10.4 mph - N/A   Clear
10:35 AM 59.0 °F 48.2 °F 67% 30.11 in 10.0 mi NNW 10.4 mph - N/A   Mostly Cloudy
10:55 AM 59.0 °F 48.2 °F 67% 30.11 in 10.0 mi North 9.2 mph - N/A   Mostly Cloudy
11:15 AM 60.8 °F 48.2 °F 63% 30.11 in 10.0 mi NNW 13.8 mph 19.6 mph N/A   Scattered Clouds
11:35 AM 60.8 °F 50.0 °F 68% 30.11 in 10.0 mi NNW 13.8 mph 24.2 mph N/A   Clear
11:55 AM 62.6 °F 50.0 °F 63% 30.11 in 10.0 mi NNW 17.3 mph 24.2 mph N/A   Clear
12:15 PM 60.8 °F 50.0 °F 68% 30.11 in 10.0 mi NNW 16.1 mph 21.9 mph N/A   Clear
12:35 PM 60.8 °F 51.8 °F 72% 30.11 in 10.0 mi NNW 19.6 mph 25.3 mph N/A   Clear
12:55 PM 59.0 °F 51.8 °F 77% 30.11 in 10.0 mi NNW 20.7 mph 27.6 mph N/A   Clear
1:15 PM 60.8 °F 51.8 °F 72% 30.11 in 10.0 mi NNW 18.4 mph 24.2 mph N/A   Clear
1:35 PM 60.8 °F 51.8 °F 72% 30.11 in 10.0 mi NNW 17.3 mph 27.6 mph N/A   Clear
1:55 PM 60.8 °F 51.8 °F 72% 30.10 in 10.0 mi NNW 17.3 mph 27.6 mph N/A   Clear
2:15 PM 62.6 °F 50.0 °F 63% 30.10 in 10.0 mi North 18.4 mph 24.2 mph N/A   Clear
2:35 PM 60.8 °F 50.0 °F 68% 30.10 in 10.0 mi NNW 15.0 mph 24.2 mph N/A   Clear
2:55 PM 60.8 °F 50.0 °F 68% 30.09 in 10.0 mi North 17.3 mph 26.5 mph N/A   Clear
3:15 PM 60.8 °F 51.8 °F 72% 30.09 in 10.0 mi North 20.7 mph 29.9 mph N/A   Clear
3:35 PM 59.0 °F 50.0 °F 72% 30.08 in 10.0 mi North 18.4 mph 27.6 mph N/A   Clear
3:55 PM 59.0 °F 51.8 °F 77% 30.08 in 10.0 mi North 18.4 mph 23.0 mph N/A   Clear
4:15 PM 59.0 °F 50.0 °F 72% 30.08 in 10.0 mi North 16.1 mph - N/A   Clear
4:35 PM 59.0 °F 50.0 °F 72% 30.07 in 10.0 mi North 15.0 mph 21.9 mph N/A   Clear
4:55 PM 59.0 °F 50.0 °F 72% 30.07 in 10.0 mi North 17.3 mph 25.3 mph N/A   Clear
5:15 PM 59.0 °F 50.0 °F 72% 30.07 in 10.0 mi North 19.6 mph 27.6 mph N/A   Clear
5:35 PM 59.0 °F 50.0 °F 72% 30.06 in 10.0 mi North 15.0 mph 21.9 mph N/A   Clear
5:55 PM 57.2 °F 50.0 °F 77% 30.06 in 10.0 mi North 13.8 mph 25.3 mph N/A   Clear
6:15 PM 57.2 °F 50.0 °F 77% 30.06 in 10.0 mi NNW 16.1 mph 24.2 mph N/A   Clear
6:35 PM 55.4 °F 50.0 °F 82% 30.06 in 10.0 mi North 15.0 mph 19.6 mph N/A   Clear
6:55 PM 55.4 °F 50.0 °F 82% 30.06 in 10.0 mi North 12.7 mph 23.0 mph N/A   Clear
7:15 PM 55.4 °F 50.0 °F 82% 30.06 in 10.0 mi North 13.8 mph 21.9 mph N/A   Clear
7:35 PM 55.4 °F 50.0 °F 82% 30.05 in 10.0 mi North 15.0 mph 19.6 mph N/A   Clear
7:55 PM 55.4 °F 50.0 °F 82% 30.05 in 10.0 mi North 12.7 mph 20.7 mph N/A   Clear
8:15 PM 55.4 °F 50.0 °F 82% 30.05 in 10.0 mi North 11.5 mph 21.9 mph N/A   Clear
8:35 PM 53.6 °F 50.0 °F 88% 30.05 in 10.0 mi North 11.5 mph 19.6 mph N/A   Clear
8:55 PM 53.6 °F 50.0 °F 88% 30.05 in 10.0 mi North 11.5 mph 19.6 mph N/A   Clear
9:15 PM 53.6 °F 50.0 °F 88% 30.05 in 7.0 mi North 11.5 mph 20.7 mph N/A   Clear
9:35 PM 53.6 °F 48.2 °F 82% 30.06 in 10.0 mi North 8.1 mph 17.3 mph N/A   Clear
9:55 PM 53.6 °F 48.2 °F 82% 30.06 in 10.0 mi North 5.8 mph - N/A   Clear
10:15 PM 53.6 °F 48.2 °F 82% 30.06 in 10.0 mi North 8.1 mph - N/A   Clear
10:35 PM 53.6 °F 48.2 °F 82% 30.06 in 10.0 mi North 9.2 mph - N/A   Clear
10:55 PM 53.6 °F 48.2 °F 82% 30.06 in 10.0 mi North 11.5 mph - N/A   Clear
11:15 PM 53.6 °F 46.4 °F 77% 30.06 in 10.0 mi North 10.4 mph - N/A   Clear
11:35 PM 53.6 °F 46.4 °F 77% 30.06 in 10.0 mi North 6.9 mph - N/A   Clear
11:55 PM 53.6 °F 46.4 °F 77% 30.06 in 10.0 mi North 8.1 mph - N/A   Clear